Location: Maiden
(35.5760°N, 81.2120°W)
Time: 02:17:35
(UTC-04:00)

A-11 Canister half - Pass Details

Date: 09 August 2020
Orbit: 1527 x 1682 km, 47.3° (Epoch: 25 September)

Event Time Altitude Azimuth Distance (km) Brightness Sun altitude
Rises 15:06:22 0° 268° (W) 4,922 12.0 60.6°
Reaches altitude 10° 15:09:44 10° 274° (W) 3,941 11.7 60.1°
Maximum altitude 15:19:26 47° 346° (NNW) 2,117 10.3 58.5°
Drops below altitude 10° 15:29:03 10° 59° (ENE) 3,908 10.9 56.8°
Sets 15:32:24 0° 65° (ENE) 4,878 11.3 56.2°
